FW7875 Weather Reports


Display with metric or nautical units.
time (UTC)temp
F
wind
direction
speed
MPH
gust
MPH
rain 1hr
in
rain 24hr
in
rain mn
in
humidity
%
barometer
mb
20260906111540 57 101 7.0 11.0 0.00 0.00 0.00 46 1023.5
20260906111020 56 101 9.0 11.0 0.00 0.00 0.00 47 1023.4
20260906110520 56 111 8.0 11.0 0.00 0.00 0.00 49 1023.7
20260906110038 55 129 8.0 10.0 0.00 0.00 0.00 49 1023.5
20260906105520 55 116 6.0 10.0 0.00 0.00 0.00 50 1023.6
20260906105020 56 117 6.0 10.0 0.00 0.00 0.00 49 1023.6
20260906104547 55 114 7.0 10.0 0.00 0.00 0.00 50 1023.5
20260906104020 55 115 7.0 10.0 0.00 0.00 0.00 50 1023.4
20260906103518 54 121 7.0 10.0 0.00 0.00 0.00 51 1023.6
20260906103039 54 108 8.0 10.0 0.00 0.00 0.00 52 1023.5
20260906102520 53 120 6.0 10.0 0.00 0.00 0.00 52 1023.5
20260906102020 54 115 7.0 10.0 0.00 0.00 0.00 52 1023.6
20260906101535 54 119 5.0 8.0 0.00 0.00 0.00 52 1023.6
20260906101020 54 113 6.0 8.0 0.00 0.00 0.00 51 1023.7
20260906100520 55 118 6.0 8.0 0.00 0.00 0.00 51 1023.7
20260906100037 54 108 6.0 9.0 0.00 0.00 0.00 51 1023.6
20260906095524 55 129 6.0 9.0 0.00 0.00 0.00 50 1023.6
20260906095019 55 134 8.0 9.0 0.00 0.00 0.00 50 1023.7
20260906094557 55 124 6.0 9.0 0.00 0.00 0.00 50 1023.7
20260906094021 55 108 6.0 9.0 0.00 0.00 0.00 50 1023.8
20260906093520 56 122 7.0 9.0 0.00 0.00 0.00 50 1023.8
20260906093053 55 117 6.0 10.0 0.00 0.00 0.00 50 1023.8
20260906092520 56 119 7.0 10.0 0.00 0.00 0.00 50 1023.7
20260906092020 55 121 7.0 9.0 0.00 0.00 0.00 51 1023.8
20260906091537 54 117 6.0 7.0 0.00 0.00 0.00 52 1023.8
20260906091017 54 115 5.0 7.0 0.00 0.00 0.00 53 1023.8
20260906090518 54 129 5.0 8.0 0.00 0.00 0.00 54 1023.8
20260906090039 54 116 6.0 8.0 0.00 0.00 0.00 53 1023.7
20260906085520 54 116 7.0 8.0 0.00 0.00 0.00 53 1023.8
20260906085020 54 114 5.0 7.0 0.00 0.00 0.00 53 1023.8
20260906084538 54 117 5.0 9.0 0.00 0.00 0.00 53 1024.0
20260906084021 54 141 6.0 9.0 0.00 0.00 0.00 53 1023.9
20260906083518 54 117 6.0 8.0 0.00 0.00 0.00 53 1024.0
20260906083045 54 113 6.0 8.0 0.00 0.00 0.00 54 1024.0
20260906082517 55 133 6.0 8.0 0.00 0.00 0.00 53 1024.0
20260906082024 55 111 6.0 8.0 0.00 0.00 0.00 53 1023.9
20260906081538 54 112 5.0 7.0 0.00 0.00 0.00 55 1024.0
20260906081020 53 131 4.0 6.0 0.00 0.00 0.00 55 1024.1
20260906080520 53 132 5.0 7.0 0.00 0.00 0.00 55 1024.0
20260906080041 53 126 5.0 7.0 0.00 0.00 0.00 54 1024.0
20260906075517 54 127 5.0 7.0 0.00 0.00 0.00 52 1024.0
20260906075018 55 126 5.0 10.0 0.00 0.00 0.00 51 1023.9
20260906074539 57 106 6.0 10.0 0.00 0.00 0.00 49 1024.0
20260906074016 58 112 8.0 12.0 0.00 0.00 0.00 47 1023.9
20260906073518 58 110 8.0 12.0 0.00 0.00 0.00 46 1023.9
20260906073037 58 118 8.0 11.0 0.00 0.00 0.00 46 1023.9
20260906072518 59 105 7.0 9.0 0.00 0.00 0.00 45 1023.8
20260906072018 59 101 7.0 9.0 0.00 0.00 0.00 45 1023.9
20260906071539 59 94 6.0 9.0 0.00 0.00 0.00 45 1023.9
20260906071018 58 102 7.0 9.0 0.00 0.00 0.00 45 1024.1
20260906070521 57 107 6.0 8.0 0.00 0.00 0.00 46 1024.2
20260906070037 58 89 6.0 9.0 0.00 0.00 0.00 46 1024.1
20260906065517 58 81 6.0 9.0 0.00 0.00 0.00 45 1024.2
20260906065016 58 76 6.0 8.0 0.00 0.00 0.00 45 1024.1
20260906064537 58 64 5.0 6.0 0.00 0.00 0.00 45 1024.1
20260906064019 58 75 5.0 7.0 0.00 0.00 0.00 45 1024.2
20260906063519 58 75 5.0 7.0 0.00 0.00 0.00 46 1024.2
20260906063039 58 86 5.0 6.0 0.00 0.00 0.00 46 1024.2
20260906062518 58 82 3.0 9.0 0.00 0.00 0.00 46 1024.2
20260906062020 58 101 5.0 9.0 0.00 0.00 0.00 46 1024.1
20260906061538 58 113 6.0 9.0 0.00 0.00 0.00 45 1023.9
20260906061017 58 99 7.0 9.0 0.00 0.00 0.00 45 1023.9
20260906060523 59 99 6.0 8.0 0.00 0.00 0.00 44 1023.9
20260906060037 58 106 4.0 6.0 0.00 0.00 0.00 45 1024.0
20260906055520 57 108 3.0 6.0 0.00 0.00 0.00 46 1023.9
20260906055017 57 105 4.0 6.0 0.00 0.00 0.00 45 1023.9
20260906054541 57 102 4.0 8.0 0.00 0.00 0.00 46 1023.8
20260906054023 57 103 5.0 8.0 0.00 0.00 0.00 46 1023.9
20260906053519 57 110 4.0 7.0 0.00 0.00 0.00 45 1023.9
20260906053040 58 96 5.0 7.0 0.00 0.00 0.00 45 1024.0
20260906052520 57 83 4.0 6.0 0.00 0.00 0.00 45 1024.0
20260906052019 58 83 4.0 7.0 0.00 0.00 0.00 44 1024.0
20260906051548 59 89 3.0 7.0 0.00 0.00 0.00 43 1024.0
20260906051020 58 104 4.0 7.0 0.00 0.00 0.00 43 1024.3
20260906050522 59 91 4.0 8.0 0.00 0.00 0.00 41 1024.1
20260906050036 60 91 5.0 8.0 0.00 0.00 0.00 40 1024.1
20260906045521 63 98 6.0 8.0 0.00 0.00 0.00 37 1024.1
20260906045018 63 134 6.0 8.0 0.00 0.00 0.00 36 1024.2
20260906044538 63 136 6.0 9.0 0.00 0.00 0.00 36 1024.0
20260906044022 63 127 7.0 10.0 0.00 0.00 0.00 36 1024.2
20260906043518 64 126 7.0 10.0 0.00 0.00 0.00 35 1024.2
20260906043036 64 121 6.0 9.0 0.00 0.00 0.00 35 1024.3
20260906042520 64 126 5.0 7.0 0.00 0.00 0.00 35 1024.1
20260906042020 64 122 5.0 7.0 0.00 0.00 0.00 34 1024.1
20260906041537 65 127 4.0 7.0 0.00 0.00 0.00 33 1024.2
20260906041018 65 135 4.0 7.0 0.00 0.00 0.00 33 1024.2
20260906040518 65 121 4.0 7.0 0.00 0.00 0.00 33 1024.1
20260906040041 65 129 4.0 7.0 0.00 0.00 0.00 33 1024.1
20260906035519 65 133 4.0 7.0 0.00 0.00 0.00 33 1024.0
20260906035023 66 136 4.0 7.0 0.00 0.00 0.00 32 1023.8
20260906034538 66 135 5.0 8.0 0.00 0.00 0.00 32 1023.9
20260906034020 66 146 4.0 8.0 0.00 0.00 0.00 32 1023.8
20260906033520 66 150 4.0 6.0 0.00 0.00 0.00 31 1023.8
20260906033045 66 157 3.0 5.0 0.00 0.00 0.00 32 1023.6
20260906032518 66 136 2.0 4.0 0.00 0.00 0.00 32 1023.7
20260906032018 65 135 2.0 3.0 0.00 0.00 0.00 33 1023.7
20260906031539 66 111 2.0 6.0 0.00 0.00 0.00 32 1023.6
20260906031018 67 139 2.0 6.0 0.00 0.00 0.00 31 1023.6
20260906030518 67 117 4.0 6.0 0.00 0.00 0.00 31 1023.4
20260906030040 67 131 2.0 6.0 0.00 0.00 0.00 31 1023.5
20260906025516 68 134 1.0 8.0 0.00 0.00 0.00 29 1023.4
20260906025022 69 207 2.0 8.0 0.00 0.00 0.00 28 1023.3
20260906024548 70 181 3.0 6.0 0.00 0.00 0.00 28 1023.3
20260906024018 70 212 4.0 6.0 0.00 0.00 0.00 28 1023.2
20260906023520 70 232 3.0 6.0 0.00 0.00 0.00 28 1023.1
20260906023038 70 228 3.0 6.0 0.00 0.00 0.00 28 1022.9
20260906022517 70 224 4.0 6.0 0.00 0.00 0.00 28 1023.0
20260906022020 70 232 4.0 6.0 0.00 0.00 0.00 28 1022.9
20260906021538 70 247 4.0 6.0 0.00 0.00 0.00 28 1022.8
20260906021020 71 250 4.0 8.0 0.00 0.00 0.00 28 1022.9
20260906020520 71 253 4.0 8.0 0.00 0.00 0.00 27 1022.8
20260906020039 71 260 4.0 8.0 0.00 0.00 0.00 28 1022.8
20260906015520 71 252 4.0 8.0 0.00 0.00 0.00 27 1022.6
20260906015019 72 223 4.0 8.0 0.00 0.00 0.00 27 1022.5
20260906014611 72 253 3.0 8.0 0.00 0.00 0.00 27 1022.6
20260906014017 73 256 4.0 11.0 0.00 0.00 0.00 26 1022.5
20260906013517 74 277 6.0 11.0 0.00 0.00 0.00 26 1022.6
20260906013047 75 274 6.0 12.0 0.00 0.00 0.00 25 1022.5
20260906012522 76 268 7.0 12.0 0.00 0.00 0.00 25 1022.5
20260906012020 76 281 8.0 12.0 0.00 0.00 0.00 25 1022.5
20260906011540 76 274 8.0 12.0 0.00 0.00 0.00 25 1022.4
20260906011018 77 259 7.0 13.0 0.00 0.00 0.00 25 1022.4
20260906010518 77 262 8.0 13.0 0.00 0.00 0.00 24 1022.5
20260906010046 78 243 7.0 14.0 0.00 0.00 0.00 25 1022.3
20260906005517 78 284 7.0 14.0 0.00 0.00 0.00 25 1022.5
20260906005023 78 262 7.0 14.0 0.00 0.00 0.00 25 1022.5
20260906004538 78 258 9.0 14.0 0.00 0.00 0.00 25 1022.4
20260906004024 79 281 8.0 13.0 0.00 0.00 0.00 24 1022.4
20260906003516 79 261 9.0 12.0 0.00 0.00 0.00 24 1022.4
20260906003037 79 286 7.0 12.0 0.00 0.00 0.00 25 1022.4
20260906002519 79 280 8.0 13.0 0.00 0.00 0.00 25 1022.3
20260906002020 79 288 8.0 13.0 0.00 0.00 0.00 24 1022.3
20260906001541 79 261 10.0 13.0 0.00 0.00 0.00 24 1022.2
20260906001017 80 252 8.0 13.0 0.00 0.00 0.00 24 1022.1
20260906000517 80 288 7.0 15.0 0.00 0.00 0.00 23 1022.3
20260906000042 80 262 9.0 15.0 0.00 0.00 0.00 22 1022.3
20260905235520 80 258 12.0 15.0 0.00 0.00 0.00 23 1022.2
20260905235017 81 260 9.0 15.0 0.00 0.00 0.00 23 1022.2
20260905234538 81 276 9.0 16.0 0.00 0.00 0.00 24 1022.3
20260905234018 81 283 11.0 18.0 0.00 0.00 0.00 24 1022.3
20260905233523 81 288 9.0 18.0 0.00 0.00 0.00 24 1022.2
20260905233035 80 263 13.0 19.0 0.00 0.00 0.00 24 1022.1
20260905232518 80 257 11.0 19.0 0.00 0.00 0.00 25 1022.2
20260905232020 81 274 9.0 20.0 0.00 0.00 0.00 24 1022.2
20260905231541 81 270 10.0 26.0 0.00 0.00 0.00 25 1022.2
20260905231019 81 279 10.0 26.0 0.00 0.00 0.00 24 1022.3
20260905230517 81 305 7.0 18.0 0.00 0.00 0.00 25 1022.2
20260905230042 81 265 9.0 21.0 0.00 0.00 0.00 24 1022.1
20260905225517 81 252 10.0 21.0 0.00 0.00 0.00 26 1022.1
20260905225017 81 266 11.0 20.0 0.00 0.00 0.00 25 1022.1
20260905224535 82 256 14.0 20.0 0.00 0.00 0.00 25 1022.2
20260905224018 82 245 11.0 18.0 0.00 0.00 0.00 26 1022.1
20260905223519 81 254 12.0 19.0 0.00 0.00 0.00 27 1022.0
20260905223037 81 285 10.0 19.0 0.00 0.00 0.00 27 1022.1
20260905222519 81 264 12.0 23.0 0.00 0.00 0.00 27 1022.0
20260905222018 81 265 14.0 23.0 0.00 0.00 0.00 27 1022.1
20260905221603 82 236 10.0 17.0 0.00 0.00 0.00 27 1022.1
20260905221021 81 260 8.0 16.0 0.00 0.00 0.00 28 1022.1
20260905220519 81 263 8.0 17.0 0.00 0.00 0.00 28 1022.3
20260905220041 81 264 9.0 21.0 0.00 0.00 0.00 29 1022.2
20260905215517 81 261 13.0 21.0 0.00 0.00 0.00 28 1022.4
20260905215015 81 224 10.0 19.0 0.00 0.00 0.00 28 1022.2
20260905214538 81 285 10.0 19.0 0.00 0.00 0.00 28 1022.4
20260905214020 82 253 10.0 19.0 0.00 0.00 0.00 28 1022.4
20260905213519 81 269 9.0 17.0 0.00 0.00 0.00 29 1022.3
20260905213056 81 270 9.0 20.0 0.00 0.00 0.00 29 1022.4
20260905212520 81 264 12.0 20.0 0.00 0.00 0.00 29 1022.5
20260905212018 82 254 13.0 24.0 0.00 0.00 0.00 27 1022.5
20260905211545 82 253 9.0 24.0 0.00 0.00 0.00 26 1022.5
20260905211017 81 257 12.0 24.0 0.00 0.00 0.00 28 1022.5
20260905210517 82 236 14.0 18.0 0.00 0.00 0.00 27 1022.6
20260905210048 81 202 9.0 25.0 0.00 0.00 0.00 28 1022.6
20260905205520 81 286 5.0 25.0 0.00 0.00 0.00 29 1022.7
20260905205019 81 221 12.0 25.0 0.00 0.00 0.00 30 1022.7
20260905204545 81 274 8.0 17.0 0.00 0.00 0.00 30 1022.7
20260905204019 81 283 7.0 20.0 0.00 0.00 0.00 30 1022.8
20260905203519 81 269 14.0 20.0 0.00 0.00 0.00 30 1023.0
20260905203040 81 264 12.0 21.0 0.00 0.00 0.00 31 1023.1
20260905202518 81 233 13.0 21.0 0.00 0.00 0.00 31 1023.2
20260905202020 81 248 14.0 21.0 0.00 0.00 0.00 30 1023.1
20260905201541 81 253 14.0 21.0 0.00 0.00 0.00 30 1023.3
20260905201018 80 230 5.0 19.0 0.00 0.00 0.00 31 1023.2
20260905200520 80 240 6.0 19.0 0.00 0.00 0.00 31 1023.4
20260905200042 80 233 11.0 19.0 0.00 0.00 0.00 32 1023.5
20260905195517 80 283 8.0 15.0 0.00 0.00 0.00 33 1023.5
20260905195019 80 261 8.0 18.0 0.00 0.00 0.00 32 1023.7
20260905194541 79 204 11.0 19.0 0.00 0.00 0.00 33 1023.8
20260905194016 79 240 10.0 19.0 0.00 0.00 0.00 34 1023.7
20260905193516 79 207 7.0 16.0 0.00 0.00 0.00 33 1023.9
20260905193040 79 247 9.0 17.0 0.00 0.00 0.00 34 1024.0
20260905192521 78 274 9.0 17.0 0.00 0.00 0.00 35 1024.1
20260905192022 78 243 4.0 13.0 0.00 0.00 0.00 35 1024.1
20260905191538 77 257 7.0 15.0 0.00 0.00 0.00 35 1024.1
20260905191018 76 226 10.0 15.0 0.00 0.00 0.00 36 1024.2
20260905190520 77 253 6.0 17.0 0.00 0.00 0.00 36 1024.3
20260905190038 77 271 7.0 17.0 0.00 0.00 0.00 35 1024.4
20260905185517 77 322 9.0 17.0 0.00 0.00 0.00 36 1024.5
20260905185018 77 270 8.0 17.0 0.00 0.00 0.00 36 1024.5
20260905184544 76 266 7.0 11.0 0.00 0.00 0.00 36 1024.5
20260905184020 76 302 6.0 12.0 0.00 0.00 0.00 36 1024.5
20260905183526 76 316 6.0 15.0 0.00 0.00 0.00 36 1024.8
20260905183040 75 257 11.0 15.0 0.00 0.00 0.00 37 1024.8
20260905182527 75 243 5.0 12.0 0.00 0.00 0.00 38 1024.8
20260905182021 75 256 7.0 12.0 0.00 0.00 0.00 38 1024.8
20260905181548 74 317 4.0 11.0 0.00 0.00 0.00 38 1024.7
20260905181020 74 312 7.0 12.0 0.00 0.00 0.00 37 1024.9
20260905180520 75 303 6.0 12.0 0.00 0.00 0.00 37 1025.0
20260905180041 75 242 7.0 10.0 0.00 0.00 0.00 37 1024.9
20260905175517 75 283 6.0 13.0 0.00 0.00 0.00 37 1025.0
20260905175019 75 256 6.0 13.0 0.00 0.00 0.00 37 1024.8
20260905174539 75 281 3.0 10.0 0.00 0.00 0.00 37 1024.9
20260905174019 74 238 5.0 13.0 0.00 0.00 0.00 37 1025.0
20260905173518 74 248 6.0 14.0 0.00 0.00 0.00 36 1024.9
20260905173035 75 225 9.0 14.0 0.00 0.00 0.00 36 1024.8
20260905172520 74 281 5.0 11.0 0.00 0.00 0.00 37 1024.8
20260905172022 74 235 5.0 10.0 0.00 0.00 0.00 37 1024.8
20260905171541 74 276 6.0 11.0 0.00 0.00 0.00 37 1024.8
20260905171017 73 303 6.0 11.0 0.00 0.00 0.00 37 1024.8
20260905170520 74 247 8.0 14.0 0.00 0.00 0.00 36 1025.0
20260905170039 74 259 3.0 14.0 0.00 0.00 0.00 36 1024.9
20260905165516 76 269 9.0 14.0 0.00 0.00 0.00 35 1024.9
20260905165020 75 250 10.0 13.0 0.00 0.00 0.00 36 1024.8
20260905164536 74 312 7.0 11.0 0.00 0.00 0.00 37 1024.9
20260905164020 74 277 4.0 11.0 0.00 0.00 0.00 37 1025.0
20260905163520 74 278 6.0 11.0 0.00 0.00 0.00 37 1024.9
20260905163042 73 248 6.0 11.0 0.00 0.00 0.00 38 1025.0
20260905162520 74 300 4.0 10.0 0.00 0.00 0.00 38 1025.0
20260905162019 74 259 5.0 10.0 0.00 0.00 0.00 40 1025.0
20260905161555 73 307 2.0 10.0 0.00 0.00 0.00 39 1025.0
20260905161019 73 298 4.0 11.0 0.00 0.00 0.00 39 1025.0
20260905160519 73 311 7.0 11.0 0.00 0.00 0.00 39 1025.0
20260905160043 73 300 5.0 8.0 0.00 0.00 0.00 40 1024.9
20260905155516 73 244 4.0 8.0 0.00 0.00 0.00 39 1024.9
20260905155016 73 296 3.0 8.0 0.00 0.00 0.00 39 1024.9
20260905154541 73 0 0.0 5.0 0.00 0.00 0.00 40 1025.0
20260905154021 73 321 2.0 5.0 0.00 0.00 0.00 40 1025.0
20260905153518 73 309 2.0 4.0 0.00 0.00 0.00 40 1025.0
20260905153039 73 0 0.0 2.0 0.00 0.00 0.00 40 1025.0
20260905152519 72 136 0.0 4.0 0.00 0.00 0.00 41 1024.9
20260905152017 71 139 1.0 4.0 0.00 0.00 0.00 42 1025.0
20260905151538 70 0 2.0 4.0 0.00 0.00 0.00 43 1025.0
20260905151023 70 0 2.0 5.0 0.00 0.00 0.00 44 1025.0
20260905150522 69 82 2.0 6.0 0.00 0.00 0.00 45 1024.9
20260905150038 69 100 3.0 6.0 0.00 0.00 0.00 45 1025.0
20260905145518 68 79 2.0 7.0 0.00 0.00 0.00 45 1024.9
20260905145018 68 140 3.0 7.0 0.00 0.00 0.00 46 1025.0
20260905144539 67 73 5.0 7.0 0.00 0.00 0.00 47 1025.0
20260905144017 66 94 5.0 7.0 0.00 0.00 0.00 48 1024.9
20260905143524 66 65 5.0 9.0 0.00 0.00 0.00 49 1025.0
20260905143040 65 77 4.0 9.0 0.00 0.00 0.00 50 1025.0
20260905142518 65 103 6.0 8.0 0.00 0.00 0.00 51 1024.8
20260905142020 64 68 4.0 7.0 0.00 0.00 0.00 52 1024.9
20260905141538 63 60 5.0 8.0 0.00 0.00 0.00 53 1024.8
20260905141020 63 81 5.0 8.0 0.00 0.00 0.00 53 1024.9
20260905140520 63 103 5.0 7.0 0.00 0.00 0.00 52 1024.8
20260905140041 63 88 4.0 6.0 0.00 0.00 0.00 54 1024.7
20260905135520 62 80 4.0 6.0 0.00 0.00 0.00 54 1024.7
20260905135019 62 91 3.0 6.0 0.00 0.00 0.00 54 1024.7
20260905134539 61 86 4.0 6.0 0.00 0.00 0.00 56 1024.5
20260905134021 60 80 4.0 6.0 0.00 0.00 0.00 57 1024.4
20260905133517 59 91 3.0 8.0 0.00 0.00 0.00 57 1024.5
20260905133035 59 98 5.0 8.0 0.00 0.00 0.00 57 1024.4
20260905132518 59 86 7.0 8.0 0.00 0.00 0.00 57 1024.3
20260905132020 59 72 6.0 8.0 0.00 0.00 0.00 57 1024.3
20260905131536 59 68 4.0 6.0 0.00 0.00 0.00 57 1024.3
20260905131020 59 64 2.0 7.0 0.00 0.00 0.00 57 1024.3
20260905130524 59 79 3.0 7.0 0.00 0.00 0.00 57 1024.3
20260905130037 58 70 5.0 7.0 0.00 0.00 0.00 58 1024.1
20260905125517 58 76 4.0 6.0 0.00 0.00 0.00 58 1023.8
20260905125017 58 75 4.0 6.0 0.00 0.00 0.00 57 1023.8
20260905124539 58 100 2.0 6.0 0.00 0.00 0.00 56 1023.7
20260905124019 59 120 3.0 7.0 0.00 0.00 0.00 56 1023.7
20260905123516 59 120 5.0 7.0 0.00 0.00 0.00 55 1023.5
20260905123040 59 120 5.0 8.0 0.00 0.00 0.00 55 1023.6
20260905122523 59 111 4.0 10.0 0.00 0.00 0.00 55 1023.6
20260905122019 59 131 6.0 10.0 0.00 0.00 0.00 54 1023.6
20260905121537 59 127 5.0 9.0 0.00 0.00 0.00 55 1023.5
20260905121020 59 103 5.0 8.0 0.00 0.00 0.00 55 1023.6
20260905120519 59 97 6.0 9.0 0.00 0.00 0.00 55 1023.6
20260905120038 59 115 5.0 9.0 0.00 0.00 0.00 54 1023.5
20260905115521 59 110 4.0 8.0 0.00 0.00 0.00 54 1023.6
20260905115018 59 123 6.0 8.0 0.00 0.00 0.00 54 1023.6
20260905114540 59 122 5.0 8.0 0.00 0.00 0.00 54 1023.6
20260905114020 59 127 3.0 7.0 0.00 0.00 0.00 54 1023.6
20260905113520 59 115 4.0 7.0 0.00 0.00 0.00 55 1023.7
20260905113038 59 111 3.0 6.0 0.00 0.00 0.00 54 1023.7
20260905112521 58 115 3.0 6.0 0.00 0.00 0.00 56 1023.7
20260905112023 58 87 2.0 5.0 0.00 0.00 0.00 56 1023.8